Year,Month,Day,Hour,Minute,Value (Times are PST for temperature in C)
2019,12,01,09,08,-0.30
2019,12,01,09,09,-0.30
2019,12,01,09,10,-0.30
2019,12,01,09,11,-0.30
2019,12,01,09,12,-0.30
2019,12,01,09,13,-0.30
2019,12,01,09,14,-0.30
2019,12,01,09,15,-0.30
2019,12,01,09,16,-0.40
2019,12,01,09,17,-0.40
2019,12,01,09,18,-0.40
2019,12,01,09,19,-0.40
2019,12,01,09,20,-0.40
2019,12,01,09,21,-0.50
2019,12,01,09,22,-0.50
2019,12,01,09,23,-0.50
2019,12,01,09,24,-0.50
2019,12,01,09,25,-0.50
2019,12,01,09,26,-0.50
2019,12,01,09,27,-0.40
2019,12,01,09,28,-0.40
2019,12,01,09,29,-0.40
2019,12,01,09,30,-0.30
2019,12,01,09,31,-0.30
2019,12,01,09,32,-0.30
2019,12,01,09,33,-0.30
2019,12,01,09,34,-0.20
2019,12,01,09,35,-0.20
2019,12,01,09,36,-0.20
2019,12,01,09,37,-0.20
2019,12,01,09,38,-0.20
2019,12,01,09,39,-0.10
2019,12,01,09,40,-0.10
2019,12,01,09,41,-0.10
2019,12,01,09,42,-0.10
2019,12,01,09,43,0.00
2019,12,01,09,44,0.00
2019,12,01,09,45,0.00
2019,12,01,09,46,0.10
2019,12,01,09,47,0.10
2019,12,01,09,48,0.10
2019,12,01,09,49,0.20
2019,12,01,09,50,0.20
2019,12,01,09,51,0.20
2019,12,01,09,52,0.30
2019,12,01,09,53,0.40
2019,12,01,09,54,0.40
2019,12,01,09,55,0.50
2019,12,01,09,56,0.60
2019,12,01,09,57,0.60
2019,12,01,09,58,0.70
2019,12,01,09,59,0.70
2019,12,01,10,00,0.70
2019,12,01,10,01,0.80
2019,12,01,10,02,0.90
2019,12,01,10,03,1.00
2019,12,01,10,04,1.10
2019,12,01,10,05,1.30
2019,12,01,10,06,1.40
2019,12,01,10,07,1.60
2019,12,01,10,08,1.70
2019,12,01,10,09,1.80
2019,12,01,10,10,1.90
2019,12,01,10,11,2.00
2019,12,01,10,12,2.10
2019,12,01,10,13,2.20
2019,12,01,10,14,2.20
2019,12,01,10,15,2.30
2019,12,01,10,16,2.30
2019,12,01,10,17,2.30
2019,12,01,10,18,2.30
2019,12,01,10,19,2.30
2019,12,01,10,20,2.40
2019,12,01,10,21,2.40
2019,12,01,10,22,2.40
2019,12,01,10,23,2.40
2019,12,01,10,24,2.50
2019,12,01,10,25,2.50
2019,12,01,10,26,2.50
2019,12,01,10,27,2.50
2019,12,01,10,28,2.60
2019,12,01,10,29,2.50
2019,12,01,10,30,2.50
2019,12,01,10,31,2.50
2019,12,01,10,32,2.50
2019,12,01,10,33,2.50
2019,12,01,10,34,2.40
2019,12,01,10,35,2.40
2019,12,01,10,36,2.40
2019,12,01,10,37,2.40
2019,12,01,10,38,2.40
2019,12,01,10,39,2.30
2019,12,01,10,40,2.30
2019,12,01,10,41,2.30
2019,12,01,10,42,2.30
2019,12,01,10,43,2.20
2019,12,01,10,44,2.20
2019,12,01,10,45,2.20
2019,12,01,10,46,2.20
2019,12,01,10,47,2.10
2019,12,01,10,48,2.10
2019,12,01,10,49,2.10
2019,12,01,10,50,2.10
2019,12,01,10,51,2.10
2019,12,01,10,52,2.00
2019,12,01,10,53,2.00
2019,12,01,10,54,2.00
2019,12,01,10,55,2.00
2019,12,01,10,56,2.00
2019,12,01,10,57,2.00
2019,12,01,10,58,2.00
2019,12,01,10,59,1.90
2019,12,01,11,00,1.90
2019,12,01,11,01,2.00
2019,12,01,11,02,1.90
2019,12,01,11,03,1.90
2019,12,01,11,04,1.90
2019,12,01,11,05,1.90
2019,12,01,11,06,1.90
2019,12,01,11,07,1.90
2019,12,01,11,08,1.90
2019,12,01,11,09,1.90
2019,12,01,11,10,2.00
2019,12,01,11,11,1.90
2019,12,01,11,12,2.00
2019,12,01,11,13,2.00
2019,12,01,11,14,2.00
2019,12,01,11,15,2.00
2019,12,01,11,16,1.90
2019,12,01,11,17,1.90
2019,12,01,11,18,1.90
2019,12,01,11,19,1.90
2019,12,01,11,20,1.90
2019,12,01,11,21,1.90
2019,12,01,11,22,1.90
2019,12,01,11,23,1.90
2019,12,01,11,24,1.90
2019,12,01,11,25,1.90
2019,12,01,11,26,1.90
2019,12,01,11,27,1.90
2019,12,01,11,28,1.90
2019,12,01,11,29,1.90
2019,12,01,11,30,1.80
2019,12,01,11,31,1.80
2019,12,01,11,32,1.80
2019,12,01,11,33,1.80
2019,12,01,11,34,1.80
2019,12,01,11,35,1.80
2019,12,01,11,36,1.90
2019,12,01,11,37,1.90
2019,12,01,11,38,1.90
2019,12,01,11,39,1.90
2019,12,01,11,40,1.90
2019,12,01,11,41,1.90
2019,12,01,11,42,1.90
2019,12,01,11,43,1.90
2019,12,01,11,44,1.90
2019,12,01,11,45,1.90
2019,12,01,11,46,2.00
2019,12,01,11,47,2.00
2019,12,01,11,48,2.00
2019,12,01,11,49,2.00
2019,12,01,11,50,2.00
2019,12,01,11,51,2.00
2019,12,01,11,52,2.10
2019,12,01,11,53,2.10
2019,12,01,11,54,2.10
2019,12,01,11,55,2.10
2019,12,01,11,56,2.10
2019,12,01,11,57,2.10
2019,12,01,11,58,2.10
2019,12,01,11,59,2.10
2019,12,01,12,00,2.10
2019,12,01,12,01,2.10
2019,12,01,12,02,2.10
2019,12,01,12,03,2.10
2019,12,01,12,04,2.10
2019,12,01,12,05,2.10
2019,12,01,12,06,2.10
2019,12,01,12,07,2.10
2019,12,01,12,08,2.10
2019,12,01,12,09,2.20
2019,12,01,12,10,2.20
2019,12,01,12,11,2.20
2019,12,01,12,12,2.20
2019,12,01,12,13,2.20
2019,12,01,12,14,2.20
2019,12,01,12,15,2.20
2019,12,01,12,16,2.20
2019,12,01,12,17,2.20
2019,12,01,12,18,2.30
2019,12,01,12,19,2.30
2019,12,01,12,20,2.30
2019,12,01,12,21,2.30
2019,12,01,12,22,2.30
2019,12,01,12,23,2.30
2019,12,01,12,24,2.30
2019,12,01,12,25,2.30
2019,12,01,12,26,2.30
2019,12,01,12,27,2.30
2019,12,01,12,28,2.30
2019,12,01,12,29,2.30
2019,12,01,12,30,2.30
2019,12,01,12,31,2.30
2019,12,01,12,32,2.30
2019,12,01,12,33,2.40
2019,12,01,12,34,2.40
2019,12,01,12,35,2.40
2019,12,01,12,36,2.40
2019,12,01,12,37,2.40
2019,12,01,12,38,2.40
2019,12,01,12,39,2.50
2019,12,01,12,40,2.50
2019,12,01,12,41,2.50
2019,12,01,12,42,2.50
2019,12,01,12,43,2.50
2019,12,01,12,44,2.60
2019,12,01,12,45,2.60
2019,12,01,12,46,2.60
2019,12,01,12,47,2.60
2019,12,01,12,48,2.60
2019,12,01,12,49,2.60
2019,12,01,12,50,2.70
2019,12,01,12,51,2.70
2019,12,01,12,52,2.70
2019,12,01,12,53,2.70
2019,12,01,12,54,2.70
2019,12,01,12,55,2.80
2019,12,01,12,56,2.80
2019,12,01,12,57,2.80
2019,12,01,12,58,2.80
2019,12,01,12,59,2.80
2019,12,01,13,00,2.80
2019,12,01,13,01,2.80
2019,12,01,13,02,2.80
2019,12,01,13,03,2.90
2019,12,01,13,04,2.90
2019,12,01,13,05,2.90
2019,12,01,13,06,2.90
2019,12,01,13,07,2.90
2019,12,01,13,08,2.90
2019,12,01,13,09,2.90
2019,12,01,13,10,2.90
2019,12,01,13,11,2.90
2019,12,01,13,12,2.90
2019,12,01,13,13,2.90
2019,12,01,13,14,2.90
2019,12,01,13,15,2.90
2019,12,01,13,16,3.00
2019,12,01,13,17,3.00
2019,12,01,13,18,3.00
2019,12,01,13,19,3.00
2019,12,01,13,20,3.00
2019,12,01,13,21,3.00
2019,12,01,13,22,3.00
2019,12,01,13,23,3.00
2019,12,01,13,24,3.00
2019,12,01,13,25,3.00
2019,12,01,13,26,3.00
2019,12,01,13,27,3.00
2019,12,01,13,28,3.00
2019,12,01,13,29,3.00
2019,12,01,13,30,3.00
2019,12,01,13,31,3.10
2019,12,01,13,32,3.10
2019,12,01,13,33,3.10
2019,12,01,13,34,3.10
2019,12,01,13,35,3.10
2019,12,01,13,36,3.10
2019,12,01,13,37,3.10
2019,12,01,13,38,3.10
2019,12,01,13,39,3.10
2019,12,01,13,40,3.10
2019,12,01,13,41,3.10
2019,12,01,13,42,3.10
2019,12,01,13,43,3.10
2019,12,01,13,44,3.20
2019,12,01,13,45,3.10
2019,12,01,13,46,3.20
2019,12,01,13,47,3.20
2019,12,01,13,48,3.20
2019,12,01,13,49,3.20
2019,12,01,13,50,3.20
2019,12,01,13,51,3.20
2019,12,01,13,52,3.20
2019,12,01,13,53,3.20
2019,12,01,13,54,3.20
2019,12,01,13,55,3.20
2019,12,01,13,56,3.20
2019,12,01,13,57,3.20
2019,12,01,13,58,3.30
2019,12,01,13,59,3.30
2019,12,01,14,00,3.30
2019,12,01,14,01,3.30
2019,12,01,14,02,3.30
2019,12,01,14,03,3.30
2019,12,01,14,04,3.30
2019,12,01,14,05,3.30
2019,12,01,14,06,3.30
2019,12,01,14,07,3.30
2019,12,01,14,08,3.30
2019,12,01,14,09,3.30
2019,12,01,14,10,3.30
2019,12,01,14,11,3.30
2019,12,01,14,12,3.30
2019,12,01,14,13,3.30
2019,12,01,14,14,3.30
2019,12,01,14,15,3.30
2019,12,01,14,16,3.30
2019,12,01,14,17,3.40
2019,12,01,14,18,3.40
2019,12,01,14,19,3.40
2019,12,01,14,20,3.40
2019,12,01,14,21,3.40
2019,12,01,14,22,3.30
2019,12,01,14,23,3.30
2019,12,01,14,24,3.30
2019,12,01,14,25,3.30
2019,12,01,14,26,3.30
2019,12,01,14,27,3.30
2019,12,01,14,28,3.30
2019,12,01,14,29,3.30
2019,12,01,14,30,3.30
2019,12,01,14,31,3.30
2019,12,01,14,32,3.30
2019,12,01,14,33,3.30
2019,12,01,14,34,3.30
2019,12,01,14,35,3.30
2019,12,01,14,36,3.30
2019,12,01,14,37,3.30
2019,12,01,14,38,3.30
2019,12,01,14,39,3.30
2019,12,01,14,40,3.30
2019,12,01,14,41,3.30
2019,12,01,14,42,3.30
2019,12,01,14,43,3.30
2019,12,01,14,44,3.30
2019,12,01,14,45,3.30
2019,12,01,14,46,3.30
2019,12,01,14,47,3.30
2019,12,01,14,48,3.30
2019,12,01,14,49,3.40
2019,12,01,14,50,3.40
2019,12,01,14,51,3.40
2019,12,01,14,52,3.40
2019,12,01,14,53,3.40
2019,12,01,14,54,3.40
2019,12,01,14,55,3.40
2019,12,01,14,56,3.40
2019,12,01,14,57,3.40
2019,12,01,14,58,3.40
2019,12,01,14,59,3.40
2019,12,01,15,00,3.40
2019,12,01,15,01,3.30
2019,12,01,15,02,3.30
2019,12,01,15,03,3.30
2019,12,01,15,04,3.30
2019,12,01,15,05,3.30
2019,12,01,15,06,3.30
2019,12,01,15,07,3.30
2019,12,01,15,08,3.20
2019,12,01,15,09,3.20
2019,12,01,15,10,3.20
2019,12,01,15,11,3.20
2019,12,01,15,12,3.20
2019,12,01,15,13,3.20
2019,12,01,15,14,3.20
2019,12,01,15,15,3.20
2019,12,01,15,16,3.20
2019,12,01,15,17,3.20
2019,12,01,15,18,3.20
2019,12,01,15,19,3.20
2019,12,01,15,20,3.20
2019,12,01,15,21,3.20
2019,12,01,15,22,3.20
2019,12,01,15,23,3.20
2019,12,01,15,24,3.10
2019,12,01,15,25,3.10
2019,12,01,15,26,3.10
2019,12,01,15,27,3.10
2019,12,01,15,28,3.10
2019,12,01,15,29,3.10
2019,12,01,15,30,3.00
2019,12,01,15,31,3.00
2019,12,01,15,32,3.00
2019,12,01,15,33,3.00
2019,12,01,15,34,2.90
2019,12,01,15,35,2.90
2019,12,01,15,36,2.90
2019,12,01,15,37,2.90
2019,12,01,15,38,2.90
2019,12,01,15,39,2.90
2019,12,01,15,40,2.90
2019,12,01,15,41,2.90
2019,12,01,15,42,2.90
2019,12,01,15,43,2.90
2019,12,01,15,44,2.90
2019,12,01,15,45,2.90
2019,12,01,15,46,2.90
2019,12,01,15,47,2.90
2019,12,01,15,48,2.90
2019,12,01,15,49,2.90
2019,12,01,15,50,2.90
2019,12,01,15,51,2.90
2019,12,01,15,52,2.80
2019,12,01,15,53,2.80
2019,12,01,15,54,2.80
2019,12,01,15,55,2.80
2019,12,01,15,56,2.80
2019,12,01,15,57,2.80
2019,12,01,15,58,2.80
2019,12,01,15,59,2.80
2019,12,01,16,00,2.70
2019,12,01,16,01,2.70
2019,12,01,16,02,2.70
2019,12,01,16,03,2.70
2019,12,01,16,04,2.70
2019,12,01,16,05,2.70
2019,12,01,16,06,2.70
2019,12,01,16,07,2.60
2019,12,01,16,08,2.60
2019,12,01,16,09,2.60
2019,12,01,16,10,2.60
2019,12,01,16,11,2.60
2019,12,01,16,12,2.60
2019,12,01,16,13,2.60
2019,12,01,16,14,2.60
2019,12,01,16,15,2.60
2019,12,01,16,16,2.50
2019,12,01,16,17,2.50
2019,12,01,16,18,2.50
2019,12,01,16,19,2.50
2019,12,01,16,20,2.50
2019,12,01,16,21,2.40
2019,12,01,16,22,2.40
2019,12,01,16,23,2.40
2019,12,01,16,24,2.40
2019,12,01,16,25,2.40
2019,12,01,16,26,2.40
2019,12,01,16,27,2.40
2019,12,01,16,28,2.40
2019,12,01,16,29,2.30
2019,12,01,16,30,2.30
2019,12,01,16,31,2.30
2019,12,01,16,32,2.30
2019,12,01,16,33,2.30
2019,12,01,16,34,2.30
2019,12,01,16,35,2.30
2019,12,01,16,36,2.30
2019,12,01,16,37,2.30
2019,12,01,16,38,2.30
2019,12,01,16,39,2.30
2019,12,01,16,40,2.20
2019,12,01,16,41,2.30
2019,12,01,16,42,2.20
2019,12,01,16,43,2.20
2019,12,01,16,44,2.20
2019,12,01,16,45,2.20
2019,12,01,16,46,2.20
2019,12,01,16,47,2.20
2019,12,01,16,48,2.20
2019,12,01,16,49,2.20
2019,12,01,16,50,2.20
2019,12,01,16,51,2.20
2019,12,01,16,52,2.20
2019,12,01,16,53,2.20
2019,12,01,16,54,2.10
2019,12,01,16,55,2.10
2019,12,01,16,56,2.10
2019,12,01,16,57,2.10
2019,12,01,16,58,2.10
2019,12,01,16,59,2.10
2019,12,01,17,00,2.10
2019,12,01,17,01,2.10
2019,12,01,17,02,2.00
2019,12,01,17,03,2.00
2019,12,01,17,04,2.00
2019,12,01,17,05,2.00
2019,12,01,17,06,2.00
2019,12,01,17,07,1.90
2019,12,01,17,08,1.90
2019,12,01,17,09,1.90
2019,12,01,17,10,1.90
2019,12,01,17,11,1.90
2019,12,01,17,12,1.90
2019,12,01,17,13,1.90
2019,12,01,17,14,1.90
2019,12,01,17,15,1.90
2019,12,01,17,16,1.80
2019,12,01,17,17,1.80
2019,12,01,17,18,1.80
2019,12,01,17,19,1.80
2019,12,01,17,20,1.80
2019,12,01,17,21,1.80
2019,12,01,17,22,1.80
2019,12,01,17,23,1.80
2019,12,01,17,24,1.80
2019,12,01,17,25,1.80
2019,12,01,17,26,1.80
2019,12,01,17,27,1.80
2019,12,01,17,28,1.80
2019,12,01,17,29,1.80
2019,12,01,17,30,1.80
2019,12,01,17,31,1.70
2019,12,01,17,32,1.70
2019,12,01,17,33,1.70
2019,12,01,17,34,1.70
2019,12,01,17,35,1.70
2019,12,01,17,36,1.70
2019,12,01,17,37,1.70
2019,12,01,17,38,1.70
2019,12,01,17,39,1.70
2019,12,01,17,40,1.70
2019,12,01,17,41,1.70
2019,12,01,17,42,1.70
2019,12,01,17,43,1.70
2019,12,01,17,44,1.70
2019,12,01,17,45,1.70
2019,12,01,17,46,1.70
2019,12,01,17,47,1.70
2019,12,01,17,48,1.60
2019,12,01,17,49,1.60
2019,12,01,17,50,1.60
2019,12,01,17,51,1.60
2019,12,01,17,52,1.60
2019,12,01,17,53,1.60
2019,12,01,17,54,1.60
2019,12,01,17,55,1.50
2019,12,01,17,56,1.50
2019,12,01,17,57,1.50
2019,12,01,17,58,1.50
2019,12,01,17,59,1.50
2019,12,01,18,00,1.50
2019,12,01,18,01,1.50
2019,12,01,18,02,1.50
2019,12,01,18,03,1.50
2019,12,01,18,04,1.50
2019,12,01,18,05,1.50
2019,12,01,18,06,1.50
2019,12,01,18,07,1.40
2019,12,01,18,08,1.50
2019,12,01,18,09,1.40
2019,12,01,18,10,1.40
2019,12,01,18,11,1.40
2019,12,01,18,12,1.40
2019,12,01,18,13,1.40
2019,12,01,18,14,1.40
2019,12,01,18,15,1.40
2019,12,01,18,16,1.40
2019,12,01,18,17,1.40
2019,12,01,18,18,1.40
2019,12,01,18,19,1.40
2019,12,01,18,20,1.40
2019,12,01,18,21,1.40
2019,12,01,18,22,1.40
2019,12,01,18,23,1.40
2019,12,01,18,24,1.40
2019,12,01,18,25,1.40
2019,12,01,18,26,1.40
2019,12,01,18,27,1.40
2019,12,01,18,28,1.40
2019,12,01,18,29,1.40
2019,12,01,18,30,1.40
2019,12,01,18,31,1.40
2019,12,01,18,32,1.40
2019,12,01,18,33,1.40
2019,12,01,18,34,1.40
2019,12,01,18,35,1.40
2019,12,01,18,36,1.40
2019,12,01,18,37,1.40
2019,12,01,18,38,1.40
2019,12,01,18,39,1.40
2019,12,01,18,40,1.40
2019,12,01,18,41,1.40
2019,12,01,18,42,1.40
2019,12,01,18,43,1.40
2019,12,01,18,44,1.40
2019,12,01,18,45,1.40
2019,12,01,18,46,1.40
2019,12,01,18,47,1.40
2019,12,01,18,48,1.40
2019,12,01,18,49,1.40
2019,12,01,18,50,1.40
2019,12,01,18,51,1.40
2019,12,01,18,52,1.30
2019,12,01,18,53,1.30
2019,12,01,18,54,1.30
2019,12,01,18,55,1.30
2019,12,01,18,56,1.30
2019,12,01,18,57,1.30
2019,12,01,18,58,1.30
2019,12,01,18,59,1.30
2019,12,01,19,00,1.40
2019,12,01,19,01,1.40
2019,12,01,19,02,1.40
2019,12,01,19,03,1.40
2019,12,01,19,04,1.50
2019,12,01,19,05,1.50
2019,12,01,19,06,1.50
2019,12,01,19,07,1.50
2019,12,01,19,08,1.50
2019,12,01,19,09,1.50
2019,12,01,19,10,1.50
2019,12,01,19,11,1.50
2019,12,01,19,12,1.40
2019,12,01,19,13,1.40
2019,12,01,19,14,1.40
2019,12,01,19,15,1.40
2019,12,01,19,16,1.40
2019,12,01,19,17,1.40
2019,12,01,19,18,1.40
2019,12,01,19,19,1.30
2019,12,01,19,20,1.30
2019,12,01,19,21,1.30
2019,12,01,19,22,1.30
2019,12,01,19,23,1.30
2019,12,01,19,24,1.30
2019,12,01,19,25,1.30
2019,12,01,19,26,1.30
2019,12,01,19,27,1.30
2019,12,01,19,28,1.30
2019,12,01,19,29,1.30
2019,12,01,19,30,1.30
2019,12,01,19,31,1.30
2019,12,01,19,32,1.30
2019,12,01,19,33,1.30
2019,12,01,19,34,1.30
2019,12,01,19,35,1.30
2019,12,01,19,36,1.30
2019,12,01,19,37,1.30
2019,12,01,19,38,1.30
2019,12,01,19,39,1.20
2019,12,01,19,40,1.20
2019,12,01,19,41,1.20
2019,12,01,19,42,1.20
2019,12,01,19,43,1.10
2019,12,01,19,44,1.10
2019,12,01,19,45,1.10
2019,12,01,19,46,1.10
2019,12,01,19,47,1.00
2019,12,01,19,48,1.00
2019,12,01,19,49,1.00
2019,12,01,19,50,1.00
2019,12,01,19,51,1.00
2019,12,01,19,52,1.00
2019,12,01,19,53,0.90
2019,12,01,19,54,1.00
2019,12,01,19,55,1.00
2019,12,01,19,56,1.00
2019,12,01,19,57,1.00
2019,12,01,19,58,1.00
2019,12,01,19,59,1.00
2019,12,01,20,00,1.00
2019,12,01,20,01,1.00
2019,12,01,20,02,1.00
2019,12,01,20,03,1.00
2019,12,01,20,04,1.00
2019,12,01,20,05,1.00
2019,12,01,20,06,1.00
2019,12,01,20,07,1.00
2019,12,01,20,08,1.00
2019,12,01,20,09,1.00
2019,12,01,20,10,1.00
2019,12,01,20,11,1.00
2019,12,01,20,12,1.00
2019,12,01,20,13,1.00
2019,12,01,20,14,1.00
2019,12,01,20,15,1.00
2019,12,01,20,16,1.00
2019,12,01,20,17,1.00
2019,12,01,20,18,1.00
2019,12,01,20,19,1.00
2019,12,01,20,20,1.00
2019,12,01,20,21,1.00
2019,12,01,20,22,1.00
2019,12,01,20,23,1.00
2019,12,01,20,24,1.00
2019,12,01,20,25,1.00
2019,12,01,20,26,1.00
2019,12,01,20,27,1.00
2019,12,01,20,28,1.00
2019,12,01,20,29,1.00
2019,12,01,20,30,1.10
2019,12,01,20,31,1.10
2019,12,01,20,32,1.10
2019,12,01,20,33,1.10
2019,12,01,20,34,1.10
2019,12,01,20,35,1.10
2019,12,01,20,36,1.10
2019,12,01,20,37,1.10
2019,12,01,20,38,1.10
2019,12,01,20,39,1.10
2019,12,01,20,40,1.10
2019,12,01,20,41,1.10
2019,12,01,20,42,1.10
2019,12,01,20,43,1.10
2019,12,01,20,44,1.10
2019,12,01,20,45,1.10
2019,12,01,20,46,1.10
2019,12,01,20,47,1.10
2019,12,01,20,48,1.10
2019,12,01,20,49,1.10
2019,12,01,20,50,1.10
2019,12,01,20,51,1.10
2019,12,01,20,52,1.10
2019,12,01,20,53,1.10
2019,12,01,20,54,1.00
2019,12,01,20,55,1.00
2019,12,01,20,56,1.00
2019,12,01,20,57,1.00
2019,12,01,20,58,1.00
2019,12,01,20,59,1.00
2019,12,01,21,00,1.00
2019,12,01,21,01,1.00
2019,12,01,21,02,1.00
2019,12,01,21,03,1.10
2019,12,01,21,04,1.10
2019,12,01,21,05,1.10
2019,12,01,21,06,1.10
2019,12,01,21,07,1.10
2019,12,01,21,08,1.10
2019,12,01,21,09,1.10
2019,12,01,21,10,1.10
2019,12,01,21,11,1.10
2019,12,01,21,12,1.10
2019,12,01,21,13,1.10
2019,12,01,21,14,1.10
2019,12,01,21,15,1.10
2019,12,01,21,16,1.10
2019,12,01,21,17,1.10
2019,12,01,21,18,1.10
2019,12,01,21,19,1.10
2019,12,01,21,20,1.10
2019,12,01,21,21,1.10
2019,12,01,21,22,1.10
2019,12,01,21,23,1.10
2019,12,01,21,24,1.10
2019,12,01,21,25,1.10
2019,12,01,21,26,1.10
2019,12,01,21,27,1.10
2019,12,01,21,28,1.10
2019,12,01,21,29,1.10
2019,12,01,21,30,1.10
2019,12,01,21,31,1.10
2019,12,01,21,32,1.10
2019,12,01,21,33,1.10
2019,12,01,21,34,1.10
2019,12,01,21,35,1.10
2019,12,01,21,36,1.10
2019,12,01,21,37,1.10
2019,12,01,21,38,1.10
2019,12,01,21,39,1.10
2019,12,01,21,40,1.10
2019,12,01,21,41,1.10
2019,12,01,21,42,1.10
2019,12,01,21,43,1.10
2019,12,01,21,44,1.00
2019,12,01,21,45,1.10
2019,12,01,21,46,1.10
2019,12,01,21,47,1.00
2019,12,01,21,48,1.00
2019,12,01,21,49,1.00
2019,12,01,21,50,1.10
2019,12,01,21,51,1.10
2019,12,01,21,52,1.00
2019,12,01,21,53,1.00
2019,12,01,21,54,1.00
2019,12,01,21,55,1.00
2019,12,01,21,56,1.00
2019,12,01,21,57,1.00
2019,12,01,21,58,1.00
2019,12,01,21,59,1.00
2019,12,01,22,00,1.00
2019,12,01,22,01,0.90
2019,12,01,22,02,0.90
2019,12,01,22,03,0.90
2019,12,01,22,04,0.90
2019,12,01,22,05,0.90
2019,12,01,22,06,0.90
2019,12,01,22,07,0.90
2019,12,01,22,08,0.90
2019,12,01,22,09,1.00
2019,12,01,22,10,1.00
2019,12,01,22,11,1.00
2019,12,01,22,12,1.00
2019,12,01,22,13,1.00
2019,12,01,22,14,1.00
2019,12,01,22,15,1.10
2019,12,01,22,16,1.10
2019,12,01,22,17,1.10
2019,12,01,22,18,1.10
2019,12,01,22,19,1.10
2019,12,01,22,20,1.10
2019,12,01,22,21,1.10
2019,12,01,22,22,1.10
2019,12,01,22,23,1.10
2019,12,01,22,24,1.20
2019,12,01,22,25,1.20
2019,12,01,22,26,1.20
2019,12,01,22,27,1.20
2019,12,01,22,28,1.20
2019,12,01,22,29,1.20
2019,12,01,22,30,1.20
2019,12,01,22,31,1.20
2019,12,01,22,32,1.20
2019,12,01,22,33,1.20
2019,12,01,22,34,1.20
2019,12,01,22,35,1.20
2019,12,01,22,36,1.20
2019,12,01,22,37,1.20
2019,12,01,22,38,1.20
2019,12,01,22,39,1.20
2019,12,01,22,40,1.20
2019,12,01,22,41,1.20
2019,12,01,22,42,1.20
2019,12,01,22,43,1.20
2019,12,01,22,44,1.20
2019,12,01,22,45,1.20
2019,12,01,22,46,1.20
2019,12,01,22,47,1.20
2019,12,01,22,48,1.20
2019,12,01,22,49,1.20
2019,12,01,22,50,1.20
2019,12,01,22,51,1.20
2019,12,01,22,52,1.20
2019,12,01,22,53,1.20
2019,12,01,22,54,1.20
2019,12,01,22,55,1.20
2019,12,01,22,56,1.20
2019,12,01,22,57,1.20
2019,12,01,22,58,1.20
2019,12,01,22,59,1.20
2019,12,01,23,00,1.20
2019,12,01,23,01,1.20
2019,12,01,23,02,1.20
2019,12,01,23,03,1.20
2019,12,01,23,04,1.20
2019,12,01,23,05,1.20
2019,12,01,23,06,1.20
2019,12,01,23,07,1.20
2019,12,01,23,08,1.20
2019,12,01,23,09,1.20
2019,12,01,23,10,1.20
2019,12,01,23,11,1.20
2019,12,01,23,12,1.20
2019,12,01,23,13,1.20
2019,12,01,23,14,1.20
2019,12,01,23,15,1.20
2019,12,01,23,16,1.10
2019,12,01,23,17,1.10
2019,12,01,23,18,1.10
2019,12,01,23,19,1.10
2019,12,01,23,20,1.10
2019,12,01,23,21,1.10
2019,12,01,23,22,1.10
2019,12,01,23,23,1.10
2019,12,01,23,24,1.10
2019,12,01,23,25,1.10
2019,12,01,23,26,1.10
2019,12,01,23,27,1.10
2019,12,01,23,28,1.10
2019,12,01,23,29,1.10
2019,12,01,23,30,1.10
2019,12,01,23,31,1.10
2019,12,01,23,32,1.10
2019,12,01,23,33,1.10
2019,12,01,23,34,1.20
2019,12,01,23,35,1.20
2019,12,01,23,36,1.20
2019,12,01,23,37,1.20
2019,12,01,23,38,1.20
2019,12,01,23,39,1.20
2019,12,01,23,40,1.20
2019,12,01,23,41,1.20
2019,12,01,23,42,1.20
2019,12,01,23,43,1.20
2019,12,01,23,44,1.20
2019,12,01,23,45,1.20
2019,12,01,23,46,1.20
2019,12,01,23,47,1.20
2019,12,01,23,48,1.20
2019,12,01,23,49,1.20
2019,12,01,23,50,1.20
2019,12,01,23,51,1.10
2019,12,01,23,52,1.10
2019,12,01,23,53,1.10
2019,12,01,23,54,1.10
2019,12,01,23,55,1.10
2019,12,01,23,56,1.10
2019,12,01,23,57,1.10
2019,12,01,23,58,1.10
2019,12,01,23,59,1.10
